sat.trackr.live / text

‹ back to catalog

STARLINK-35651

NORAD 66386 · 2025-257G

PAYLOAD ACTIVE UNKNOWN

§ Identity

Operator
Country
US
Launch date
2025-11-09
Launch site
AFETR
Launch vehicle
Mass (kg)
RCS (m²)

Purposes: comms

External: N2YO · Heavens-Above · Gunter

§ Orbital elements

Epoch: 2026-05-25T05:12:59.141088Z

Period
94.10 min
Inclination
53.1580°
Eccentricity
0.0001239
Mean motion
15.30216210 rev/d
Perigee alt
474.3 km
Apogee alt
476.0 km
Semi-major
6,853.3 km
B*
6.8589e-4
RAAN
221.3187°
Arg perigee
83.7448°
Mean anomaly
276.3694°
Rev number
3,145

§ Raw data

STARLINK-356511 66386U 25257G   26145.21735117  .00020020  00000+0  68589-3 0  99972 66386  53.1580 221.3187 0001239  83.7448 276.3694 15.30216210 31457

JSON: /api/v1/satellites/66386 · /tle

For live sub-satellite position, see the globe view (requires WebGL).

§ Visibility from observer

Set your observer location to see the next 7 days of passes ≥ 10°. The values pass through the URL so the page stays shareable.

No JS? Fill the form by hand. The geolocation button needs JavaScript.